Time,TemperatureF,DewpointF,PressureIn,WindDirection,WindDirectionDegrees,WindSpeedMPH,WindSpeedGustMPH,Humidity,HourlyPrecipIn,Conditions,Clouds,dailyrainin,SolarRadiationWatts/m^2,SoftwareType,DateUTC
2013-10-30 00:01:00,36.6,19.0,30.31,South,189,0.0,1.0,49,0.00,,,0.00,0,weatherlink.com 1.10,2013-10-30 04:01:00,
2013-10-30 00:16:00,36.4,20.0,30.30,South,189,0.0,0.0,52,0.00,,,0.00,0,weatherlink.com 1.10,2013-10-30 04:16:00,
2013-10-30 00:31:00,36.2,20.0,30.30,South,189,0.0,0.0,52,0.00,,,0.00,0,weatherlink.com 1.10,2013-10-30 04:31:00,
2013-10-30 00:46:00,35.9,20.0,30.30,South,189,0.0,0.0,52,0.00,,,0.00,0,weatherlink.com 1.10,2013-10-30 04:46:00,
2013-10-30 01:01:00,35.9,23.0,30.30,South,188,2.0,2.0,60,0.00,,,0.00,0,weatherlink.com 1.10,2013-10-30 05:01:00,
2013-10-30 01:16:00,35.5,22.0,30.30,South,188,0.0,1.0,58,0.00,,,0.00,0,weatherlink.com 1.10,2013-10-30 05:16:00,
2013-10-30 01:31:00,35.5,23.0,30.29,South,188,0.0,0.0,61,0.00,,,0.00,0,weatherlink.com 1.10,2013-10-30 05:31:00,
2013-10-30 01:46:00,35.6,24.0,30.29,South,187,0.0,1.0,64,0.00,,,0.00,0,weatherlink.com 1.10,2013-10-30 05:46:00,
2013-10-30 02:01:00,35.3,24.0,30.28,South,187,0.0,1.0,63,0.00,,,0.00,0,weatherlink.com 1.10,2013-10-30 06:01:00,
2013-10-30 02:16:00,35.6,24.0,30.28,SSW,209,2.0,3.0,63,0.00,,,0.00,0,weatherlink.com 1.10,2013-10-30 06:16:00,
2013-10-30 02:31:00,36.7,25.0,30.27,SW,233,3.0,7.0,64,0.00,,,0.00,0,weatherlink.com 1.10,2013-10-30 06:31:00,
2013-10-30 02:46:00,37.3,26.0,30.27,SW,231,5.0,7.0,64,0.00,,,0.00,0,weatherlink.com 1.10,2013-10-30 06:46:00,
2013-10-30 03:01:00,38.0,26.0,30.27,SSW,207,0.0,5.0,62,0.00,,,0.00,0,weatherlink.com 1.10,2013-10-30 07:01:00,
2013-10-30 03:16:00,38.4,26.0,30.26,SW,216,0.0,4.0,61,0.00,,,0.00,0,weatherlink.com 1.10,2013-10-30 07:16:00,
2013-10-30 03:31:00,38.0,29.0,30.26,WSW,238,2.0,3.0,69,0.00,,,0.00,0,weatherlink.com 1.10,2013-10-30 07:31:00,
2013-10-30 03:46:00,37.4,28.0,30.26,WSW,252,0.0,5.0,69,0.00,,,0.00,0,weatherlink.com 1.10,2013-10-30 07:46:00,
2013-10-30 04:01:00,38.1,28.0,30.26,WSW,252,0.0,0.0,66,0.00,,,0.00,0,weatherlink.com 1.10,2013-10-30 08:01:00,
2013-10-30 04:16:00,38.3,30.0,30.26,WSW,252,0.0,0.0,72,0.00,,,0.00,0,weatherlink.com 1.10,2013-10-30 08:16:00,
2013-10-30 04:31:00,37.5,28.0,30.26,WSW,252,0.0,0.0,69,0.00,,,0.00,0,weatherlink.com 1.10,2013-10-30 08:31:00,
2013-10-30 04:46:00,36.8,29.0,30.26,WSW,252,0.0,0.0,74,0.00,,,0.00,0,weatherlink.com 1.10,2013-10-30 08:46:00,
2013-10-30 05:16:00,36.3,32.0,30.27,WNW,290,1.0,7.0,84,0.00,,,0.00,0,weatherlink.com 1.10,2013-10-30 09:16:00,
2013-10-30 05:31:00,36.4,33.0,30.27,WNW,290,0.0,2.0,86,0.00,,,0.00,0,weatherlink.com 1.10,2013-10-30 09:31:00,
2013-10-30 05:46:00,35.9,33.0,30.27,WNW,290,0.0,0.0,89,0.00,,,0.00,0,weatherlink.com 1.10,2013-10-30 09:46:00,
2013-10-30 06:01:00,35.6,33.0,30.27,WNW,290,0.0,0.0,91,0.00,,,0.00,0,weatherlink.com 1.10,2013-10-30 10:01:00,
2013-10-30 06:16:00,35.5,33.0,30.27,WNW,290,0.0,0.0,92,0.00,,,0.00,0,weatherlink.com 1.10,2013-10-30 10:16:00,
2013-10-30 06:31:00,35.4,33.0,30.26,WSW,242,2.0,2.0,92,0.00,,,0.00,0,weatherlink.com 1.10,2013-10-30 10:31:00,
2013-10-30 06:46:00,35.2,33.0,30.26,WSW,240,0.0,2.0,91,0.00,,,0.00,0,weatherlink.com 1.10,2013-10-30 10:46:00,
2013-10-30 07:01:00,35.2,33.0,30.25,WSW,240,0.0,2.0,92,0.00,,,0.00,0,weatherlink.com 1.10,2013-10-30 11:01:00,
2013-10-30 07:16:00,35.4,33.0,30.25,WSW,240,0.0,0.0,92,0.00,,,0.00,0,weatherlink.com 1.10,2013-10-30 11:16:00,
2013-10-30 07:31:00,35.7,34.0,30.25,WSW,240,0.0,0.0,93,0.00,,,0.00,0,weatherlink.com 1.10,2013-10-30 11:31:00,
2013-10-30 07:47:00,35.7,34.0,30.25,WSW,240,0.0,2.0,93,0.00,,,0.00,0,weatherlink.com 1.10,2013-10-30 11:47:00,
2013-10-30 08:02:00,35.9,34.0,30.26,WSW,240,0.0,2.0,93,0.00,,,0.00,5,weatherlink.com 1.10,2013-10-30 12:02:00,
2013-10-30 08:17:00,36.0,35.0,30.25,WSW,240,0.0,0.0,94,0.00,,,0.00,7,weatherlink.com 1.10,2013-10-30 12:17:00,
2013-10-30 08:32:00,36.1,35.0,30.25,WSW,240,0.0,0.0,94,0.00,,,0.00,16,weatherlink.com 1.10,2013-10-30 12:32:00,
2013-10-30 08:47:00,36.4,35.0,30.26,WSW,242,3.0,4.0,94,0.00,,,0.00,26,weatherlink.com 1.10,2013-10-30 12:47:00,
2013-10-30 09:02:00,37.0,36.0,30.27,WSW,239,0.0,2.0,95,0.00,,,0.00,21,weatherlink.com 1.10,2013-10-30 13:02:00,
2013-10-30 09:17:00,37.1,36.0,30.27,WSW,239,0.0,0.0,95,0.00,,,0.00,40,weatherlink.com 1.10,2013-10-30 13:17:00,
2013-10-30 09:32:00,37.7,37.0,30.27,WSW,239,0.0,3.0,96,0.00,,,0.00,51,weatherlink.com 1.10,2013-10-30 13:32:00,
2013-10-30 09:47:00,38.0,37.0,30.27,WSW,239,0.0,0.0,95,0.00,,,0.00,46,weatherlink.com 1.10,2013-10-30 13:47:00,
2013-10-30 10:02:00,38.3,37.0,30.27,WSW,239,0.0,0.0,95,0.00,,,0.00,63,weatherlink.com 1.10,2013-10-30 14:02:00,
2013-10-30 10:17:00,38.9,38.0,30.27,WSW,238,1.0,2.0,96,0.00,,,0.00,105,weatherlink.com 1.10,2013-10-30 14:17:00,
2013-10-30 10:32:00,39.6,38.0,30.27,SSE,153,0.0,0.0,95,0.00,,,0.00,146,weatherlink.com 1.10,2013-10-30 14:32:00,
2013-10-30 10:47:00,40.6,39.0,30.27,SSE,153,2.0,3.0,95,0.00,,,0.00,216,weatherlink.com 1.10,2013-10-30 14:47:00,
2013-10-30 11:02:00,41.8,41.0,30.27,ESE,110,0.0,3.0,95,0.00,,,0.00,227,weatherlink.com 1.10,2013-10-30 15:02:00,
2013-10-30 11:17:00,42.6,41.0,30.26,SE,146,0.0,4.0,93,0.00,,,0.00,301,weatherlink.com 1.10,2013-10-30 15:17:00,
2013-10-30 11:32:00,43.8,41.0,30.25,SW,215,2.0,5.0,91,0.00,,,0.00,294,weatherlink.com 1.10,2013-10-30 15:32:00,
2013-10-30 11:47:00,44.7,41.0,30.25,South,173,1.0,4.0,86,0.00,,,0.00,250,weatherlink.com 1.10,2013-10-30 15:47:00,
2013-10-30 12:02:00,45.3,41.0,30.25,SW,229,2.0,4.0,84,0.00,,,0.00,371,weatherlink.com 1.10,2013-10-30 16:02:00,
2013-10-30 12:17:00,46.0,41.0,30.24,South,188,0.0,5.0,83,0.00,,,0.00,320,weatherlink.com 1.10,2013-10-30 16:17:00,
2013-10-30 12:32:00,46.3,40.0,30.23,SSW,209,0.0,3.0,80,0.00,,,0.00,281,weatherlink.com 1.10,2013-10-30 16:32:00,
2013-10-30 12:47:00,46.7,41.0,30.23,SSW,213,2.0,5.0,79,0.00,,,0.00,255,weatherlink.com 1.10,2013-10-30 16:47:00,
2013-10-30 13:02:00,46.9,41.0,30.23,West,269,3.0,6.0,81,0.00,,,0.00,348,weatherlink.com 1.10,2013-10-30 17:02:00,
2013-10-30 13:17:00,47.2,41.0,30.21,SW,223,0.0,3.0,78,0.00,,,0.00,299,weatherlink.com 1.10,2013-10-30 17:17:00,
2013-10-30 13:32:00,48.1,41.0,30.21,SW,234,0.0,3.0,77,0.00,,,0.00,371,weatherlink.com 1.10,2013-10-30 17:32:00,
2013-10-30 13:48:00,48.9,42.0,30.20,SW,234,0.0,2.0,76,0.00,,,0.00,367,weatherlink.com 1.10,2013-10-30 17:48:00,
2013-10-30 14:03:00,50.0,42.0,30.19,East,97,5.0,5.0,74,0.00,,,0.00,603,weatherlink.com 1.10,2013-10-30 18:03:00,
2013-10-30 14:18:00,50.8,41.0,30.19,South,177,0.0,5.0,70,0.00,,,0.00,471,weatherlink.com 1.10,2013-10-30 18:18:00,
2013-10-30 14:33:00,50.4,42.0,30.18,WSW,241,5.0,6.0,72,0.00,,,0.00,213,weatherlink.com 1.10,2013-10-30 18:33:00,
2013-10-30 14:48:00,50.6,41.0,30.19,WSW,240,1.0,7.0,70,0.00,,,0.00,461,weatherlink.com 1.10,2013-10-30 18:48:00,
2013-10-30 15:03:00,51.0,41.0,30.18,North,5,2.0,4.0,69,0.00,,,0.00,413,weatherlink.com 1.10,2013-10-30 19:03:00,
2013-10-30 15:18:00,51.1,42.0,30.18,NW,316,1.0,6.0,70,0.00,,,0.00,385,weatherlink.com 1.10,2013-10-30 19:18:00,
2013-10-30 15:33:00,50.7,41.0,30.18,North,5,6.0,6.0,69,0.00,,,0.00,327,weatherlink.com 1.10,2013-10-30 19:33:00,
2013-10-30 15:48:00,50.0,41.0,30.18,NNW,338,0.0,7.0,71,0.00,,,0.00,113,weatherlink.com 1.10,2013-10-30 19:48:00,
2013-10-30 16:03:00,49.4,40.0,30.18,NNW,338,3.0,7.0,71,0.00,,,0.00,84,weatherlink.com 1.10,2013-10-30 20:03:00,
2013-10-30 16:18:00,49.3,41.0,30.18,NNW,338,0.0,5.0,72,0.00,,,0.00,65,weatherlink.com 1.10,2013-10-30 20:18:00,
2013-10-30 16:33:00,49.0,40.0,30.18,North,5,0.0,6.0,72,0.00,,,0.00,58,weatherlink.com 1.10,2013-10-30 20:33:00,
2013-10-30 16:48:00,48.6,41.0,30.18,North,349,2.0,5.0,74,0.00,,,0.00,51,weatherlink.com 1.10,2013-10-30 20:48:00,
2013-10-30 17:03:00,47.8,41.0,30.18,NE,51,4.0,5.0,77,0.00,,,0.00,39,weatherlink.com 1.10,2013-10-30 21:03:00,
2013-10-30 17:18:00,47.1,41.0,30.17,ENE,59,0.0,4.0,78,0.00,,,0.00,30,weatherlink.com 1.10,2013-10-30 21:18:00,
2013-10-30 17:33:00,46.2,40.0,30.18,NE,52,0.0,4.0,80,0.00,,,0.00,19,weatherlink.com 1.10,2013-10-30 21:33:00,
2013-10-30 17:48:00,45.7,40.0,30.18,NE,35,2.0,6.0,80,0.00,,,0.00,5,weatherlink.com 1.10,2013-10-30 21:48:00,
2013-10-30 18:03:00,45.2,40.0,30.18,NNE,21,1.0,4.0,81,0.00,,,0.00,0,weatherlink.com 1.10,2013-10-30 22:03:00,
2013-10-30 18:18:00,44.9,39.0,30.19,NE,42,3.0,4.0,81,0.00,,,0.00,0,weatherlink.com 1.10,2013-10-30 22:18:00,
2013-10-30 18:33:00,44.4,39.0,30.19,NE,48,2.0,3.0,81,0.00,,,0.00,0,weatherlink.com 1.10,2013-10-30 22:33:00,
2013-10-30 18:48:00,43.6,39.0,30.18,NE,48,0.0,1.0,83,0.00,,,0.00,0,weatherlink.com 1.10,2013-10-30 22:48:00,
2013-10-30 19:03:00,43.4,39.0,30.19,NE,48,0.0,2.0,85,0.00,,,0.00,0,weatherlink.com 1.10,2013-10-30 23:03:00,
2013-10-30 19:18:00,43.6,39.0,30.19,NE,48,2.0,3.0,85,0.00,,,0.00,0,weatherlink.com 1.10,2013-10-30 23:18:00,
2013-10-30 19:33:00,43.4,39.0,30.19,NE,48,0.0,1.0,85,0.00,,,0.00,0,weatherlink.com 1.10,2013-10-30 23:33:00,
2013-10-30 19:48:00,43.6,39.0,30.19,NE,48,0.0,2.0,85,0.00,,,0.00,0,weatherlink.com 1.10,2013-10-30 23:48:00,
2013-10-30 20:03:00,43.8,39.0,30.19,NE,47,2.0,3.0,83,0.00,,,0.00,0,weatherlink.com 1.10,2013-10-31 00:03:00,
2013-10-30 20:18:00,43.5,39.0,30.19,NE,47,0.0,1.0,83,0.00,,,0.00,0,weatherlink.com 1.10,2013-10-31 00:18:00,
2013-10-30 20:33:00,43.3,39.0,30.19,NE,47,0.0,0.0,84,0.00,,,0.00,0,weatherlink.com 1.10,2013-10-31 00:33:00,
2013-10-30 20:48:00,43.2,39.0,30.18,ESE,109,0.0,3.0,84,0.00,,,0.00,0,weatherlink.com 1.10,2013-10-31 00:48:00,
2013-10-30 21:03:00,43.6,39.0,30.18,ESE,118,0.0,1.0,84,0.00,,,0.00,0,weatherlink.com 1.10,2013-10-31 01:03:00,
2013-10-30 21:18:00,43.7,39.0,30.17,SE,137,2.0,3.0,84,0.00,,,0.00,0,weatherlink.com 1.10,2013-10-31 01:18:00,
2013-10-30 21:33:00,43.3,39.0,30.18,SE,144,0.0,2.0,84,0.00,,,0.00,0,weatherlink.com 1.10,2013-10-31 01:33:00,
2013-10-30 21:48:00,42.8,38.0,30.18,SE,144,0.0,0.0,84,0.00,,,0.00,0,weatherlink.com 1.10,2013-10-31 01:48:00,
2013-10-30 22:03:00,42.5,38.0,30.18,SE,144,0.0,0.0,85,0.00,,,0.00,0,weatherlink.com 1.10,2013-10-31 02:03:00,
2013-10-30 22:18:00,42.4,38.0,30.18,SE,144,0.0,1.0,85,0.00,,,0.00,0,weatherlink.com 1.10,2013-10-31 02:18:00,
2013-10-30 22:33:00,42.5,38.0,30.19,SE,144,1.0,1.0,85,0.00,,,0.00,0,weatherlink.com 1.10,2013-10-31 02:33:00,
2013-10-30 22:48:00,42.5,38.0,30.19,SE,144,0.0,0.0,85,0.00,,,0.00,0,weatherlink.com 1.10,2013-10-31 02:48:00,
2013-10-30 23:04:00,42.3,38.0,30.18,SE,144,0.0,2.0,85,0.00,,,0.00,0,weatherlink.com 1.10,2013-10-31 03:04:00,
2013-10-30 23:18:00,42.0,38.0,30.18,SE,146,0.0,2.0,86,0.00,,,0.00,0,weatherlink.com 1.10,2013-10-31 03:18:00,
2013-10-30 23:33:00,42.1,38.0,30.18,SSE,150,0.0,2.0,86,0.00,,,0.00,0,weatherlink.com 1.10,2013-10-31 03:33:00,
2013-10-30 23:48:00,42.7,39.0,30.17,SSW,194,2.0,6.0,85,0.00,,,0.00,0,weatherlink.com 1.10,2013-10-31 03:48:00,